This is the latest recevied weather packets stored in our database for station/object WP3OF-2. If no packets are shown the sender has not sent any weather packets the latest 10 day(s).
| Time | Temp. | Humidity | Pressure | Rain* | Wind** | Luminosity | Snow |
|---|---|---|---|---|---|---|---|
| 1788275288 | 24.44° C | 80% | 1027.4 hPa | 0 mm | - | 780 W/m² | - |
| 1788274986 | 24.44° C | 80% | 1027.4 hPa | 0 mm | - | 780 W/m² | - |
| 1788274683 | 25° C | 81% | 1027.4 hPa | 0 mm | - | 773 W/m² | - |
| 1788274378 | 25° C | 81% | 1027.4 hPa | 0 mm | - | 785 W/m² | - |
| 1788274073 | 25° C | 80% | 1027.4 hPa | 0 mm | - | 804 W/m² | - |
| 1788273769 | 23.89° C | 81% | 1027.4 hPa | 0 mm | - | 786 W/m² | - |
| 1788273465 | 23.89° C | 82% | 1027.4 hPa | 0 mm | - | 783 W/m² | - |
| 1788273161 | 24.44° C | 81% | 1027.4 hPa | 0 mm | - | 815 W/m² | - |
| 1788272857 | 23.89° C | 81% | 1027.9 hPa | 0 mm | - | 864 W/m² | - |
| 1788272556 | 23.89° C | 81% | 1027.9 hPa | 0 mm | - | 864 W/m² | - |
| 1788272250 | 23.89° C | 81% | 1027.9 hPa | 0 mm | - | 864 W/m² | - |
| 1788271945 | 23.89° C | 80% | 1027.9 hPa | 0 mm | - | 911 W/m² | - |
| 1788271643 | 24.44° C | 78% | 1027.4 hPa | 0 mm | - | 907 W/m² | - |
| 1788271342 | 24.44° C | 78% | 1027.4 hPa | 0 mm | - | 907 W/m² | - |
| 1788271037 | 24.44° C | 78% | 1027.4 hPa | 0 mm | - | 907 W/m² | - |
| 1788270733 | 23.89° C | 78% | 1027.4 hPa | 0 mm | - | 784 W/m² | - |
| 1788270429 | 23.89° C | 78% | 1027.4 hPa | 0 mm | - | 784 W/m² | - |
| 1788270124 | 23.89° C | 78% | 1027.4 hPa | 0 mm | - | 773 W/m² | - |
| 1788269825 | 23.89° C | 78% | 1027.4 hPa | 0 mm | - | 744 W/m² | - |
| 1788269522 | 23.89° C | 78% | 1027.4 hPa | 0 mm | - | 704 W/m² | - |
| 1788269220 | 23.89° C | 76% | 1027.1 hPa | 0 mm | - | 697 W/m² | - |
| 1788268745 | 23.89° C | 75% | 1027.4 hPa | 0 mm | - | 592 W/m² | - |
| 1788268444 | 23.89° C | 75% | 1027.4 hPa | 0 mm | - | 592 W/m² | - |
| 1788268160 | 23.33° C | 74% | 1027.1 hPa | 0 mm | - | 527 W/m² | - |
| 1788267834 | 23.89° C | 75% | 1027.1 hPa | 0 mm | - | 544 W/m² | - |
* Rain latest hour (hover to see other rain measurements)
** Current wind speed in m/s (hover to see current wind gust speed)